Powrót do katalogu

ONEWEB-0098

AktywnyŁącznośćPO
NORAD 45442·PAYLOAD·🇬🇧 United Kingdom

Wystrzelony Mar 21, 2020 z Baikonur Cosmodrome

Loading…

Następne Przeloty (najbliższe 24 godziny)

TLE

ŚwieżeSource: CelesTrak SupGP

Epoka: Sep 14, 2026, 09:38 UTC

1 45442C 20020U   26257.40189072 -.00003547  00000+0 -10022-1 0  2579
2 45442  87.8954   3.3333 0001765 101.0586 334.3361 13.11417112    13

Śledź ONEWEB-0098 w czasie rzeczywistym z AllMySat

Download on the App Store